[[{"header":{"parameterUnit":"m.s-1","parameterCategory":1,"la1":30.2992,"la2":30.254,"lo1":-89.0895,"lo2":-89.0443,"dy":0.0025,"dx":0.0025,"nx":19,"ny":19,"refTime":"2026-03-25T09:00:00:Z","depth":0,"parameterNumber":2,"parameterNumberName":"U-component_of_WINDS"},"data":[0,0,0,-2.2793,-2.2794,-2.2843,-2.2843,-2.2919,-2.292,0,0,0,0,0,0,0,0,0,0,0,-2.2785,-2.2786,-2.2793,-2.2794,-2.2843,-2.2843,-2.2919,-2.292,0,0,0,0,0,0,0,0,0,0,0,-2.2785,-2.2786,-2.2786,-2.2794,-2.2843,-2.2843,-2.2919,-2.2877,0,0,0,0,0,0,0,0,0,0,-2.2827,-2.2826,-2.2785,-2.2787,-2.2795,-2.2843,-2.2843,-2.2875,-2.288,-2.2902,0,-2.2923,0,-2.2923,-2.2926,-2.2926,0,0,0,-2.2789,-2.2822,-2.283,-2.2787,-2.2795,-2.2843,-2.282,-2.2878,-2.2883,-2.2909,-2.2924,-2.2926,-2.2924,-2.2926,-2.2927,-2.3072,-2.3073,0,0,-2.2786,-2.2797,-2.2826,-2.2834,-2.2826,-2.2818,-2.2821,-2.2881,-2.2898,-2.2924,-2.2928,-2.2925,-2.2927,-2.2927,-2.3071,-2.3072,0,0,0,-2.2782,-2.2796,-2.2801,-2.2831,-2.2839,-2.282,-2.2823,-2.2895,-2.2896,-2.2929,-2.2926,-2.2927,-2.2928,-2.307,-2.3071,-2.3127,0,0,0,-2.278,-2.2793,-2.28,-2.2808,-2.2838,-2.2868,-2.2837,-2.2892,-2.2899,-2.2926,-2.2927,-2.2929,-2.3069,-2.3071,-2.3123,-2.3151,0,0,0,-2.2779,-2.2793,-2.2802,-2.2808,-2.283,-2.2866,-2.287,-2.2893,-2.2898,-2.2926,-2.2929,-2.3068,-2.307,-2.312,-2.3145,-2.3192,0,0,0,-2.2782,-2.285,-2.2804,-2.288,-2.2829,-2.2901,-2.287,-2.2923,-2.2954,-2.2928,-2.3069,-2.3071,-2.3119,-2.3142,-2.3189,-2.3233,-2.3253,0,0,-2.2874,-2.2862,-2.2906,-2.2866,-2.2948,-2.2893,-2.2984,-2.3002,-2.2994,-2.3047,-2.305,-2.3125,-2.3145,-2.3192,-2.3362,-2.3377,0,0,0,-2.2939,-2.2971,-2.299,-2.3021,-2.3037,-2.3054,-2.3057,-2.3064,-2.3109,-2.3023,-2.3155,-2.3166,-2.3193,-2.3214,-2.3227,-2.325,-2.3082,-2.3081,-2.3081,-2.3084,-2.3072,-2.3145,-2.314,-2.3171,-2.3175,-2.3199,-2.321,-2.3188,-2.322,-2.3234,-2.3339,-2.3363,-2.3373,-2.3397,-2.3258,-2.3258,-2.3258,-2.3258,-2.3217,-2.326,-2.3233,-2.3293,-2.3281,-2.3332,-2.3341,-2.3325,-2.3371,-2.3326,-2.3349,-2.33,-2.3391,-2.3411,-2.3262,-2.3262,-2.3261,-2.3261,-2.326,-2.3309,-2.3328,-2.3337,-2.3382,-2.3419,-2.3413,-2.3459,-2.3447,-2.3436,-2.3459,-2.3473,-2.3472,-2.3469,-2.3467,-2.3468,-2.3468,-2.3468,-2.3469,-2.3469,-2.34,-2.3408,-2.3448,-2.3475,-2.3494,-2.3519,-2.3527,-2.3547,-2.3565,-2.3552,-2.3552,-2.3528,-2.3402,-2.337,-2.3474,-2.3473,-2.3473,-2.3472,-2.3472,-2.3536,-2.3504,-2.3566,-2.3586,-2.3617,-2.3656,-2.3641,-2.3683,-2.3697,-2.3721,-2.3694,-2.3603,-2.3589,-2.3578,-2.3551,-2.3696,-2.3696,-2.3696,-2.3696,-2.3612,-2.3605,-2.3667,-2.37,-2.3732,-2.3726,-2.3799,-2.3808,-2.3812,-2.3821,-2.3799,-2.3763,-2.3753,-2.3745,-2.3731,-2.3705,-2.3886,-2.3886,-2.3886,-2.3695,-2.3691,-2.3754,-2.3758,-2.3783,-2.3805,-2.3873,-2.3914,-2.3912,-2.3894,-2.3828,-2.382,-2.3762,-2.3744,-2.372,-2.3698,-2.3652,0,0]},{"header":{"parameterUnit":"m.s-1","parameterCategory":1,"la1":30.2992,"la2":30.254,"lo1":-89.0895,"lo2":-89.0443,"dy":0.0025,"dx":0.0025,"nx":19,"ny":19,"refTime":"2026-03-25T09:00:00:Z","depth":0,"parameterNumber":3,"parameterNumberName":"V-component_of_WINDS"},"data":[0,0,0,2.4642,2.4643,2.4713,2.4713,2.4763,2.4763,0,0,0,0,0,0,0,0,0,0,0,2.4599,2.4599,2.4642,2.4643,2.4712,2.4713,2.4763,2.4763,0,0,0,0,0,0,0,0,0,0,0,2.4599,2.4599,2.4598,2.4643,2.4712,2.4713,2.4763,2.4724,0,0,0,0,0,0,0,0,0,0,2.4663,2.4602,2.4599,2.4598,2.4643,2.4712,2.4713,2.4723,2.4726,2.4715,0,2.4701,0,2.4733,2.4764,2.4764,0,0,0,2.4659,2.4599,2.4638,2.4598,2.4644,2.4712,2.4686,2.4725,2.4729,2.472,2.4702,2.4705,2.4734,2.4764,2.4764,2.4651,2.4649,0,0,2.4655,2.4599,2.4635,2.4639,2.4628,2.4683,2.4688,2.4728,2.4704,2.4702,2.4707,2.4734,2.4764,2.4765,2.4652,2.465,0,0,0,2.4633,2.4595,2.4635,2.4636,2.4652,2.4685,2.469,2.4703,2.472,2.4708,2.4735,2.4765,2.4765,2.4653,2.4651,2.4532,0,0,0,2.4632,2.4583,2.4632,2.4598,2.465,2.4678,2.4662,2.4717,2.4724,2.4735,2.4765,2.4765,2.4655,2.4652,2.4539,2.4484,0,0,0,2.4602,2.458,2.4583,2.4595,2.4623,2.4679,2.47,2.472,2.4739,2.4764,2.4765,2.4656,2.4653,2.4545,2.4494,2.4437,0,0,0,2.4553,2.4475,2.458,2.4503,2.4622,2.4606,2.47,2.469,2.4697,2.4765,2.4655,2.4652,2.4547,2.45,2.4443,2.4378,2.4346,0,0,2.4423,2.4457,2.4417,2.4513,2.4463,2.46,2.4533,2.4592,2.4646,2.4646,2.4644,2.4537,2.4495,2.4438,2.4191,2.4165,0,0,0,2.4356,2.4326,2.4325,2.433,2.4375,2.4409,2.4485,2.4507,2.451,2.4635,2.4504,2.4481,2.445,2.4421,2.4399,2.4376,2.4637,2.4637,2.4637,2.4088,2.4162,2.41,2.4183,2.4186,2.4267,2.4276,2.432,2.4393,2.436,2.436,2.4201,2.4165,2.4149,2.4123,2.4334,2.4333,2.4333,2.4332,2.3902,2.387,2.3971,2.3946,2.4025,2.4005,2.408,2.4132,2.4124,2.4207,2.4184,2.4266,2.4118,2.41,2.4324,2.4326,2.4327,2.4327,2.4328,2.3732,2.373,2.376,2.3776,2.378,2.3868,2.3855,2.3928,2.3996,2.3973,2.398,2.3982,2.3991,2.3972,2.3971,2.3971,2.397,2.397,2.397,2.3543,2.3581,2.3563,2.3605,2.3619,2.3646,2.3727,2.3742,2.3777,2.3831,2.3831,2.3905,2.4092,2.4135,2.3961,2.3963,2.3964,2.3965,2.3965,2.3321,2.3384,2.3355,2.3368,2.3425,2.3424,2.3519,2.3543,2.3566,2.3557,2.3639,2.3765,2.3804,2.3822,2.3859,2.3624,2.3624,2.3624,2.3624,2.3176,2.3205,2.3193,2.3209,2.3235,2.3318,2.3282,2.3345,2.3419,2.3438,2.3483,2.3539,2.3554,2.3585,2.3608,2.3643,2.3358,2.3358,2.3358,2.3044,2.3079,2.3034,2.311,2.316,2.3201,2.3169,2.3183,2.3281,2.3349,2.3454,2.3465,2.3556,2.3582,2.3647,2.3682,2.3748,0,0]}]]